Manteo, NC

4:00 PM EDT on August 28, 2016 (GMT -0400)
Dare County Regional

Weather History for KMQI - May, 2013

Change the Weather History Date:

Thursday, May 16, 2013

  Actual Average Record
Temperature  
Mean Temperature 78 °F -  
Max Temperature 89 °F 71 °F 89 °F (2013)
Min Temperature 68 °F 59 °F 43 °F (1973)
Cooling Degree Days 14    
Growing Degree Days 28 (Base 50)    
Moisture  
Dew Point 62 °F    
Average Humidity 61    
Maximum Humidity 82    
Minimum Humidity 33    
Precipitation  
Precipitation 0.00 in - - ()
Sea Level Pressure  
Sea Level Pressure 29.91 in    
Wind  
Wind Speed 9 mph (WSW)    
Max Wind Speed 18 mph    
Max Gust Speed 28 mph    
Visibility 10 miles    
Events      
Averages and records for this station are not official NWS values.
T = Trace of Precipitation, MM = Missing Value Source: NWS Daily Summary

Daily Weather History Graph

Daily Weather History Graph

Search for Another Location

Airport or City:

Trip Planner

Search our weather history database for the weather conditions in past years. The results will help you decide how hot, cold, wet, or windy it might be!

Date:

Astronomy

May. 16, 2013 Rise Set
Actual Time 5:56 AM EDT 8:02 PM EDT
Civil Twilight 5:27 AM EDT 8:31 PM EDT
Nautical Twilight 4:52 AM EDT 9:06 PM EDT
Astronomical Twilight 4:15 AM EDT 9:43 PM EDT
Moon 11:23 AM EDT (5/16) 12:24 AM EDT (5/16)
Length of Visible Light 15h 03m
Length of Day
14h 06m
Waxing Crescent, 35% of the Moon is Illuminated
May 16
Waxing Crescent
May 18
First Quarter
May 25
Full
May 31
Last Quarter
Jun 8
New

Hourly Weather History & Observations

Time (EDT) Temp. Heat Index Dew Point Humidity Pressure Visibility Wind Dir Wind Speed Gust Speed Precip Events Conditions
12:15 AM 71.2 °F - 63.5 °F 76% 29.90 in 10.0 mi SSW 11.5 mph - N/A   Clear
12:35 AM 71.1 °F - 63.5 °F 77% 29.90 in 10.0 mi SSW 10.4 mph - N/A   Clear
12:55 AM 70.9 °F - 62.8 °F 75% 29.90 in 10.0 mi SW 10.4 mph - N/A   Clear
1:15 AM 70.7 °F - 62.6 °F 75% 29.90 in 10.0 mi SW 10.4 mph - N/A   Clear
1:35 AM 70.3 °F - 62.8 °F 77% 29.90 in 10.0 mi SW 8.1 mph - N/A   Clear
1:55 AM 70.5 °F - 62.6 °F 76% 29.89 in 10.0 mi SW 10.4 mph - N/A   Clear
2:15 AM 70.5 °F - 62.4 °F 75% 29.89 in 10.0 mi SW 12.7 mph 17.3 mph N/A   Clear
2:35 AM 70.7 °F - 62.4 °F 75% 29.88 in 10.0 mi SW 10.4 mph - N/A   Clear
2:55 AM 71.1 °F - 61.9 °F 73% 29.88 in 10.0 mi SW 9.2 mph - N/A   Clear
3:15 AM 70.9 °F - 61.7 °F 73% 29.88 in 10.0 mi SW 10.4 mph 16.1 mph N/A   Clear
3:35 AM 70.7 °F - 62.1 °F 74% 29.88 in 10.0 mi SSW 9.2 mph 16.1 mph N/A   Clear
3:55 AM 70.7 °F - 62.4 °F 75% 29.88 in 10.0 mi SSW 10.4 mph - N/A   Clear
4:15 AM 70.0 °F - 62.4 °F 77% 29.88 in 10.0 mi SSW 9.2 mph - N/A   Clear
4:35 AM 69.8 °F - 62.2 °F 77% 29.88 in 10.0 mi SW 8.1 mph - N/A   Clear
4:55 AM 69.3 °F - 62.2 °F 78% 29.88 in 10.0 mi SSW 8.1 mph - N/A   Clear
5:15 AM 68.9 °F - 62.6 °F 80% 29.89 in 10.0 mi SSW 8.1 mph - N/A   Clear
5:35 AM 68.0 °F - 62.4 °F 82% 29.89 in 10.0 mi SSW 8.1 mph - N/A   Clear
5:55 AM 68.0 °F - 62.4 °F 82% 29.89 in 10.0 mi SSW 8.1 mph - N/A   Clear
6:15 AM 68.2 °F - 62.6 °F 82% 29.90 in 10.0 mi SSW 8.1 mph - N/A   Clear
6:35 AM 68.5 °F - 62.4 °F 81% 29.90 in 10.0 mi SW 10.4 mph - N/A   Clear
6:55 AM 68.9 °F - 62.8 °F 81% 29.91 in 10.0 mi SW 10.4 mph - N/A   Clear
7:15 AM 69.3 °F - 62.8 °F 80% 29.91 in 10.0 mi SW 10.4 mph - N/A   Clear
7:35 AM 70.9 °F - 63.0 °F 76% 29.91 in 10.0 mi WSW 9.2 mph - N/A   Clear
7:55 AM 72.1 °F - 63.3 °F 74% 29.92 in 10.0 mi WSW 9.2 mph - N/A   Clear
8:15 AM 73.9 °F - 63.1 °F 69% 29.91 in 10.0 mi WSW 10.4 mph - N/A   Clear
8:35 AM 74.8 °F - 63.7 °F 68% 29.92 in 10.0 mi WSW 9.2 mph - N/A   Clear
8:55 AM 76.3 °F - 63.9 °F 65% 29.92 in 10.0 mi WSW 8.1 mph - N/A   Clear
9:15 AM 76.6 °F - 64.4 °F 66% 29.93 in 10.0 mi WSW 8.1 mph - N/A   Clear
9:35 AM 77.9 °F - 64.6 °F 63% 29.92 in 10.0 mi WSW 8.1 mph - N/A   Clear
9:55 AM 79.2 °F - 64.8 °F 61% 29.92 in 10.0 mi WSW 8.1 mph - N/A   Clear
10:15 AM 79.9 °F - 65.1 °F 61% 29.92 in 10.0 mi WSW 8.1 mph - N/A   Clear
10:35 AM 80.6 °F 82.4 °F 65.3 °F 59% 29.92 in 10.0 mi WSW 6.9 mph - N/A   Clear
10:55 AM 81.9 °F 83.7 °F 65.1 °F 57% 29.93 in 10.0 mi WSW 5.8 mph - N/A   Clear
11:15 AM 83.3 °F 84.6 °F 64.2 °F 52% 29.93 in 10.0 mi West 6.9 mph - N/A   Clear
11:35 AM 85.5 °F 86.6 °F 63.7 °F 48% 29.93 in 10.0 mi West 6.9 mph - N/A   Clear
11:55 AM 86.5 °F 86.8 °F 61.7 °F 43% 29.93 in 10.0 mi West 5.8 mph - N/A   Clear
12:15 PM 86.0 °F 86.1 °F 61.0 °F 43% 29.93 in 10.0 mi West 6.9 mph - N/A   Clear
12:35 PM 87.8 °F 88.2 °F 62.1 °F 42% 29.92 in 10.0 mi WNW 6.9 mph - N/A   Clear
12:55 PM 88.0 °F 88.1 °F 61.5 °F 41% 29.92 in 10.0 mi WNW 8.1 mph - N/A   Clear
1:15 PM 87.8 °F 87.4 °F 60.1 °F 39% 29.91 in 10.0 mi WNW 4.6 mph - N/A   Clear
1:35 PM 88.3 °F 87.8 °F 59.5 °F 38% 29.91 in 10.0 mi West 3.5 mph - N/A   Clear
1:55 PM 89.2 °F 89.3 °F 61.2 °F 39% 29.90 in 10.0 mi WSW 5.8 mph - N/A   Clear
2:15 PM 88.9 °F 88.5 °F 60.1 °F 38% 29.90 in 10.0 mi West 4.6 mph - N/A   Clear
2:35 PM 89.6 °F 89.2 °F 60.1 °F 37% 29.89 in 10.0 mi West 6.9 mph - N/A   Clear
3:15 PM 89.8 °F 88.4 °F 56.8 °F 33% 29.89 in 10.0 mi West 13.8 mph - N/A   Clear
3:35 PM 89.6 °F 88.6 °F 58.8 °F 35% 29.88 in 10.0 mi WSW 12.7 mph 19.6 mph N/A   Clear
3:55 PM 89.4 °F 88.4 °F 58.5 °F 35% 29.87 in 10.0 mi WSW 11.5 mph 19.6 mph N/A   Clear
4:15 PM 88.7 °F 88.3 °F 59.9 °F 38% 29.88 in 10.0 mi West 11.5 mph 18.4 mph N/A   Clear
4:35 PM 87.3 °F 85.9 °F 56.3 °F 35% 29.87 in 10.0 mi WSW 16.1 mph 27.6 mph N/A   Scattered Clouds
4:55 PM 85.1 °F 85.2 °F 60.8 °F 44% 29.87 in 10.0 mi WSW 18.4 mph - N/A   Clear
5:15 PM 84.6 °F 84.6 °F 60.3 °F 44% 29.88 in 10.0 mi WSW 16.1 mph - N/A   Clear
5:35 PM 83.5 °F 83.6 °F 60.3 °F 45% 29.88 in 10.0 mi WSW 11.5 mph 18.4 mph N/A   Clear
6:15 PM 83.3 °F 83.2 °F 59.2 °F 44% 29.88 in 10.0 mi West 9.2 mph - N/A   Clear
6:35 PM 83.7 °F 83.1 °F 57.4 °F 41% 29.89 in 10.0 mi West 8.1 mph - N/A   Clear
6:55 PM 82.8 °F 82.5 °F 57.9 °F 43% 29.90 in 10.0 mi West 6.9 mph - N/A   Clear
7:15 PM 82.0 °F 82.0 °F 58.1 °F 44% 29.90 in 10.0 mi West 4.6 mph - N/A   Clear
7:35 PM 80.4 °F 81.3 °F 60.8 °F 51% 29.91 in 10.0 mi Calm Calm - N/A   Clear
7:55 PM 78.3 °F - 63.3 °F 60% 29.91 in 10.0 mi South 5.8 mph - N/A   Clear
8:15 PM 77.7 °F - 64.6 °F 64% 29.92 in 10.0 mi SW 5.8 mph - N/A   Clear
8:35 PM 77.5 °F - 62.6 °F 60% 29.93 in 10.0 mi West 3.5 mph - N/A   Clear
8:55 PM 78.6 °F - 60.3 °F 53% 29.93 in 10.0 mi Calm Calm - N/A   Clear
9:15 PM 77.4 °F - 61.5 °F 58% 29.93 in 10.0 mi Calm Calm - N/A   Clear
9:35 PM 77.4 °F - 61.5 °F 58% 29.93 in 10.0 mi West 3.5 mph - N/A   Clear
9:55 PM 76.3 °F - 62.8 °F 63% 29.94 in 10.0 mi SSW 3.5 mph - N/A   Clear
10:15 PM 74.3 °F - 66.9 °F 78% 29.94 in 10.0 mi Calm Calm - N/A   Clear
10:35 PM 74.3 °F - 65.8 °F 75% 29.95 in 10.0 mi SW 4.6 mph - N/A   Clear
10:55 PM 74.3 °F - 65.5 °F 74% 29.95 in 10.0 mi WSW 3.5 mph - N/A   Clear
11:15 PM 73.4 °F - 65.7 °F 77% 29.94 in 10.0 mi West 3.5 mph - N/A   Clear
11:35 PM 73.6 °F - 65.8 °F 77% 29.94 in 10.0 mi Calm Calm - N/A   Clear
11:55 PM 73.4 °F - 66.0 °F 78% 29.95 in 10.0 mi Calm Calm - N/A   Clear